GW0055 Weather Reports


time (UTC)temp
C
wind
direction
speed
KPH
gust
KPH
rain 1hr
cm
rain 24hr
cm
rain mn
cm
humidity
%
barometer
mb
20260504151038 22 195 19.3 32.2 0.00 0.00 0.00 49 1003.3
20260504150538 22 220 17.7 32.2 0.00 0.00 0.00 49 1003.4
20260504141037 20 184 16.1 25.7 0.00 0.00 0.00 59 1003.7
20260504140537 19 207 14.5 24.1 0.00 0.00 0.00 59 1003.7
20260504130540 16 183 11.3 19.3 0.00 0.00 0.00 65 1004.5
20260504120105 12 197 12.9 17.7 0.00 0.00 0.00 72 1005.1
20260504110534 11 188 9.7 12.9 0.00 0.00 0.00 73 1005.1
20260504100533 12 184 6.4 14.5 0.00 0.00 0.00 67 1005.7
20260504081548 13 213 3.2 12.9 0.00 0.00 0.00 64 1006.3
20260504081035 13 196 4.8 12.9 0.00 0.00 0.00 64 1006.4
20260504080534 13 213 6.4 12.9 0.00 0.00 0.00 64 1006.4
20260504050535 15 226 8.0 12.9 0.00 0.00 0.00 62 1007.9
20260504045534 15 214 6.4 12.9 0.00 0.00 0.00 62 1007.9
20260504045034 15 228 6.4 14.5 0.00 0.00 0.00 62 1008.0
20260504044544 15 222 8.0 14.5 0.00 0.00 0.00 63 1008.1
20260504044034 14 211 4.8 12.9 0.00 0.00 0.00 63 1008.0
20260504043534 14 220 6.4 12.9 0.00 0.00 0.00 63 1008.0
20260504043104 14 196 8.0 12.9 0.00 0.00 0.00 63 1008.0
20260504042534 14 206 8.0 12.9 0.00 0.00 0.00 63 1008.1
20260504042034 14 197 8.0 11.3 0.00 0.00 0.00 62 1008.2
20260504041545 14 201 8.0 11.3 0.00 0.00 0.00 61 1008.2
20260504041034 15 199 6.4 11.3 0.00 0.00 0.00 61 1008.2
20260504040539 15 200 6.4 11.3 0.00 0.00 0.00 60 1008.2
20260504040042 15 199 8.0 11.3 0.00 0.00 0.00 59 1008.3
20260504035535 15 197 6.4 12.9 0.00 0.00 0.00 58 1008.3
20260504035035 16 211 6.4 14.5 0.00 0.00 0.00 57 1008.4
20260504034546 16 198 9.7 14.5 0.00 0.00 0.00 56 1008.4
20260504034034 16 212 6.4 16.1 0.00 0.00 0.00 56 1008.5
20260504033534 16 205 8.0 16.1 0.00 0.00 0.00 56 1008.5
20260504033045 16 214 9.7 16.1 0.00 0.00 0.00 55 1008.5
20260504032534 16 217 9.7 16.1 0.00 0.00 0.00 55 1008.6
20260504032034 16 207 9.7 16.1 0.00 0.00 0.00 55 1008.5
20260504031551 16 205 9.7 16.1 0.00 0.00 0.00 55 1008.5
20260504031034 16 225 8.0 14.5 0.00 0.00 0.00 55 1008.6
20260504030534 16 227 8.0 14.5 0.00 0.00 0.00 55 1008.6
20260504030100 16 216 8.0 14.5 0.00 0.00 0.00 54 1008.6
20260504025534 16 206 9.7 14.5 0.00 0.00 0.00 54 1008.6
20260504025034 16 214 8.0 16.1 0.00 0.00 0.00 54 1008.7
20260504024543 16 204 9.7 16.1 0.00 0.00 0.00 53 1008.6
20260504024034 17 207 11.3 19.3 0.00 0.00 0.00 53 1008.6
20260504023534 17 213 11.3 19.3 0.00 0.00 0.00 53 1008.6
20260504023049 17 220 9.7 19.3 0.00 0.00 0.00 52 1008.6
20260504022538 17 234 9.7 19.3 0.00 0.00 0.00 52 1008.6
20260504022035 17 213 9.7 19.3 0.00 0.00 0.00 52 1008.6
20260504021550 17 209 11.3 19.3 0.00 0.00 0.00 51 1008.5
20260504021036 17 218 9.7 22.5 0.00 0.00 0.00 51 1008.4
20260504020538 17 195 9.7 22.5 0.00 0.00 0.00 50 1008.3
20260504020053 17 225 9.7 17.7 0.00 0.00 0.00 50 1008.3
20260504015534 17 228 9.7 17.7 0.00 0.00 0.00 50 1008.3
20260504015034 17 204 11.3 17.7 0.00 0.00 0.00 50 1008.3
20260504014549 17 219 11.3 19.3 0.00 0.00 0.00 50 1008.2
20260504014034 17 233 11.3 19.3 0.00 0.00 0.00 50 1008.2
20260504013535 18 233 9.7 19.3 0.00 0.00 0.00 49 1008.2
20260504013051 18 216 11.3 19.3 0.00 0.00 0.00 49 1008.1
20260504012534 18 204 11.3 19.3 0.00 0.00 0.00 48 1008.1
20260504012035 18 225 11.3 19.3 0.00 0.00 0.00 48 1008.1
20260504011549 18 204 11.3 19.3 0.00 0.00 0.00 48 1008.1
20260504011037 18 216 11.3 19.3 0.00 0.00 0.00 48 1008.0
20260504010534 18 205 8.0 17.7 0.00 0.00 0.00 47 1008.0
20260504010055 19 211 9.7 17.7 0.00 0.00 0.00 47 1008.1
20260504005534 19 216 9.7 17.7 0.00 0.00 0.00 46 1008.0
20260504005034 19 223 9.7 17.7 0.00 0.00 0.00 46 1007.9
20260504004547 20 209 9.7 17.7 0.00 0.00 0.00 46 1008.0
20260504004035 20 226 9.7 17.7 0.00 0.00 0.00 45 1007.9
20260504003534 20 232 9.7 20.9 0.00 0.00 0.00 45 1008.0
20260504003044 20 216 9.7 20.9 0.00 0.00 0.00 44 1007.9
20260504002534 20 220 9.7 20.9 0.00 0.00 0.00 43 1008.0
20260504002034 20 220 9.7 20.9 0.00 0.00 0.00 43 1008.0
20260504001541 20 234 8.0 19.3 0.00 0.00 0.00 42 1008.0
20260504001034 20 230 8.0 22.5 0.00 0.00 0.00 42 1008.0
20260504000534 21 223 8.0 22.5 0.00 0.00 0.00 42 1008.0
20260504000054 21 207 8.0 20.9 0.00 0.00 0.00 42 1008.0
20260503235533 21 248 9.7 20.9 0.00 0.00 0.00 41 1008.0
20260503235035 21 242 9.7 20.9 0.00 0.00 0.00 42 1008.2
20260503234550 21 222 11.3 22.5 0.00 0.00 0.00 41 1008.1
20260503234038 21 224 9.7 22.5 0.00 0.00 0.00 41 1008.1
20260503233537 21 230 11.3 22.5 0.00 0.00 0.00 41 1008.1
20260503233044 21 243 12.9 22.5 0.00 0.00 0.00 41 1008.1
20260503232537 21 234 12.9 29.0 0.00 0.00 0.00 41 1008.0
20260503232037 21 230 12.9 29.0 0.00 0.00 0.00 41 1008.0
20260503231545 21 235 14.5 29.0 0.00 0.00 0.00 41 1008.1
20260503231040 21 226 12.9 29.0 0.00 0.00 0.00 42 1008.1
20260503230538 21 230 14.5 27.4 0.00 0.00 0.00 42 1008.3
20260503230109 21 227 8.0 29.0 0.00 0.00 0.00 44 1008.2
20260503225537 21 248 12.9 29.0 0.00 0.00 0.00 43 1008.2
20260503225037 21 249 12.9 27.4 0.00 0.00 0.00 43 1008.3
20260503224548 21 225 11.3 27.4 0.00 0.00 0.00 44 1008.2
20260503224038 20 221 12.9 27.4 0.00 0.00 0.00 45 1008.2
20260503223536 20 214 14.5 24.1 0.00 0.00 0.00 45 1008.3
20260503223109 20 225 11.3 22.5 0.00 0.00 0.00 45 1008.3
20260503222539 20 230 6.4 19.3 0.00 0.00 0.00 46 1008.3
20260503222038 20 224 11.3 22.5 0.00 0.00 0.00 45 1008.5
20260503221552 20 236 11.3 25.7 0.00 0.00 0.00 45 1008.4
20260503221038 20 246 14.5 27.4 0.00 0.00 0.00 46 1008.3
20260503220538 20 220 12.9 27.4 0.00 0.00 0.00 45 1008.4
20260503220051 20 228 12.9 32.2 0.00 0.00 0.00 45 1008.4
20260503215538 20 234 11.3 32.2 0.00 0.00 0.00 46 1008.5
20260503215037 20 240 14.5 25.7 0.00 0.00 0.00 46 1008.4
20260503214555 20 239 14.5 25.7 0.00 0.00 0.00 46 1008.6
20260503214037 20 255 14.5 25.7 0.00 0.00 0.00 45 1008.5
20260503213537 20 234 11.3 27.4 0.00 0.00 0.00 47 1008.6
20260503213046 20 226 14.5 27.4 0.00 0.00 0.00 47 1008.6
20260503212537 20 237 14.5 30.6 0.00 0.00 0.00 47 1008.8
20260503212036 20 232 16.1 37.0 0.00 0.00 0.00 47 1009.0
20260503211551 20 234 16.1 37.0 0.00 0.00 0.00 47 1009.0
20260503211037 20 248 20.9 35.4 0.00 0.00 0.00 45 1009.0
20260503210535 20 225 16.1 32.2 0.00 0.00 0.00 47 1009.0
20260503210046 20 244 16.1 30.6 0.00 0.00 0.00 46 1009.0
20260503205537 20 247 17.7 32.2 0.00 0.00 0.00 46 1009.0
20260503205038 20 221 17.7 32.2 0.00 0.00 0.00 46 1009.1
20260503204547 20 231 17.7 30.6 0.00 0.00 0.00 46 1009.1
20260503204038 19 249 16.1 30.6 0.00 0.00 0.00 47 1009.2
20260503203543 19 258 16.1 30.6 0.00 0.00 0.00 47 1009.2
20260503203049 19 232 17.7 32.2 0.00 0.00 0.00 46 1009.3
20260503202538 20 242 17.7 32.2 0.00 0.00 0.00 46 1009.2
20260503202040 20 237 19.3 30.6 0.00 0.00 0.00 46 1009.3
20260503201551 20 223 14.5 37.0 0.00 0.00 0.00 48 1009.4
20260503201041 19 231 16.1 37.0 0.00 0.00 0.00 47 1009.5
20260503200537 19 226 14.5 37.0 0.00 0.00 0.00 48 1009.6
20260503200047 19 253 16.1 33.8 0.00 0.00 0.00 48 1009.6
20260503195538 19 242 17.7 33.8 0.00 0.00 0.00 48 1009.4
20260503195038 19 224 17.7 38.6 0.00 0.00 0.00 48 1009.1
20260503194601 18 222 20.9 40.2 0.00 0.00 0.00 47 1009.2
20260503194039 18 215 22.5 43.5 0.00 0.00 0.00 48 1009.3
20260503193536 18 228 24.1 43.5 0.00 0.00 0.00 48 1009.5
20260503193047 18 216 22.5 45.1 0.00 0.00 0.00 47 1009.7
20260503192537 18 208 24.1 45.1 0.00 0.00 0.00 47 1009.8
20260503192039 18 236 19.3 35.4 0.00 0.00 0.00 47 1009.8
20260503191552 18 230 20.9 48.3 0.00 0.00 0.00 46 1009.7
20260503191039 18 248 25.7 48.3 0.00 0.00 0.00 46 1009.5
20260503190541 18 215 22.5 40.2 0.00 0.00 0.00 46 1009.4
20260503190047 19 234 20.9 40.2 0.00 0.00 0.00 45 1009.6
20260503185540 19 268 20.9 40.2 0.00 0.00 0.00 46 1009.9
20260503185040 18 230 20.9 41.8 0.00 0.00 0.00 45 1009.8
20260503184544 18 232 24.1 41.8 0.00 0.00 0.00 46 1009.8
20260503184037 18 220 17.7 38.6 0.00 0.00 0.00 45 1009.9
20260503183537 18 240 19.3 41.8 0.00 0.00 0.00 46 1009.9
20260503183053 18 224 17.7 43.5 0.00 0.00 0.00 46 1010.2
20260503182537 18 214 25.7 49.9 0.00 0.00 0.00 46 1010.3
20260503182037 18 224 22.5 49.9 0.00 0.00 0.00 46 1010.2
20260503181557 18 213 16.1 48.3 0.00 0.00 0.00 48 1010.2
20260503181038 18 220 22.5 48.3 0.00 0.00 0.00 47 1010.2
20260503180540 17 230 25.7 45.1 0.00 0.00 0.00 47 1010.3
20260503180053 17 227 25.7 43.5 0.00 0.00 0.00 47 1010.2
20260503175536 17 201 22.5 43.5 0.00 0.00 0.00 46 1010.4
20260503175038 17 226 25.7 48.3 0.00 0.00 0.00 46 1010.6
20260503174556 18 209 24.1 43.5 0.00 0.00 0.00 46 1010.6
20260503174038 17 195 20.9 43.5 0.00 0.00 0.00 46 1010.9
20260503173539 17 240 22.5 46.7 0.00 0.00 0.00 46 1010.7
20260503173047 17 220 27.4 46.7 0.00 0.00 0.00 47 1010.9
20260503172536 17 224 22.5 38.6 0.00 0.00 0.00 47 1011.1
20260503172034 17 227 22.5 41.8 0.00 0.00 0.00 47 1011.1
20260503171544 17 221 25.7 41.8 0.00 0.00 0.00 46 1011.0
20260503171034 17 213 24.1 43.5 0.00 0.00 0.00 46 1011.0
20260503170534 17 245 20.9 43.5 0.00 0.00 0.00 46 1011.2